Weather in Klin

Russia / Tula Oblast     54°22′48″N   38°08′21″E
temp.,
°C
wind,
m/s
gust,
m/s
humid.,
%
clouds,
%
prec.,
mm/h
press.,
hPa
HPBL,
m
19 april, mon
mon1900:00+6ene5892100 0.4 1020310
03:00+5ne41094100 1.0 1021390
06:00+6ne51089100 0.1 1020440
09:00+6ene71289100 0.3 1021911
12:00+6ene61087100 1.9 1020946
15:00+6ene71288100 4.7 10211137
18:00+5ene61294100 3.6 10201180
21:00+4e91495100 7.1 1021939
20 april, tue
tue2000:00+3e71397100 0.8 1021746
03:00+4ene71389100 1.0 1020632
06:00+4e71292100 0.0 1019696
09:00+3e61096100 0.1 1019649
12:00+2e61196100 0.0 1019544
15:00+2ene61297100 0.5 1017582
18:00+3e71397100 0.5 1014666
21:00+2ene71597100 2.6 1010638
21 april, wed
wed2100:000ene71799100 7.1 1005714
03:00+2ne713100100 13.5 1000476
06:00+4nne48100100 5.1 996195
09:00+2wsw6998100 4.8 998463
12:00+2wsw91497100 0.2 1004698
15:00+4wsw71289100 0.2 1008959
18:00+5sw51087100 0.0 1011529
21:00+4s5119294 0.1 1012253
22 april, thu
thu2200:00+3ssw4119316 0.1 1013243
03:00+3ssw4109282 0.1 1014226
06:00+4ssw6128790 0.1 1015462
09:00+6ssw61086100 0.2 1016424
12:00+10ssw697788 0.0 1017841
15:00+13ssw796292 0.3 10161501
18:00+12ssw5106895 0.9 1017490
21:00+9s51280100 0.9 1018254
23 april, fri
fri2300:00+7s4108763 0.0 1018197
03:00+6s488836 0.0 1018139
06:00+6s4109165 0.0 1018183
09:00+12s610715 0.0 1018563
12:00+15s78545 0.0 10161501
15:00+16s6851100 0.2 10142304
18:00+13s51166100 0.0 1014437
21:00+11sse5147124 0.0 1013425